W6MAF Weather Reports


Display with metric or nautical units.
time (UTC)temp
F
wind
direction
speed
MPH
gust
MPH
rain 1hr
in
rain 24hr
in
rain mn
in
humidity
%
barometer
mb
20210414173620 51 246 22.0 12.0 0.00 0.00 0.00 72 1011.4
20210414173129 51 207 20.0 26.0 0.00 0.00 0.00 72 1011.2
20210414172909 51 259 23.0 17.0 0.00 0.00 0.00 74 1011.4
20210414172623 51 243 22.0 30.0 0.00 0.00 0.00 74 1011.3
20210414171637 51 240 25.0 20.0 0.00 0.00 0.00 74 1011.3
20210414171128 50 233 23.0 22.0 0.00 0.00 0.00 75 1011.2
20210414170727 50 235 24.0 26.0 0.00 0.00 0.00 77 1011.2
20210414170448 50 240 21.0 23.0 0.00 0.00 0.00 78 1011.2
20210414170110 50 210 21.0 14.0 0.00 0.00 0.00 80 1011.1
20210414165719 49 233 22.0 28.0 0.00 0.00 0.00 81 1011.1
20210414164641 49 198 20.0 18.0 0.00 0.00 0.00 82 1011.1
20210414164139 49 232 22.0 17.0 0.00 0.00 0.00 83 1011.0
20210414163641 49 215 15.0 9.0 0.00 0.00 0.00 84 1011.0
20210414163242 48 250 18.0 23.0 0.00 0.00 0.00 84 1011.0
20210414163046 48 235 18.0 18.0 0.00 0.00 0.00 86 1011.0
20210414162841 48 246 17.0 21.0 0.00 0.00 0.00 87 1010.8
20210414161649 48 221 17.0 15.0 0.00 0.00 0.00 88 1010.7
20210414161149 47 218 20.0 17.0 0.00 0.00 0.00 89 1010.7
20210414160652 47 217 18.0 19.0 0.00 0.00 0.00 91 1010.8
20210414160233 47 238 21.0 18.0 0.00 0.00 0.00 91 1010.8
20210414155938 47 242 19.0 18.0 0.00 0.00 0.00 92 1011.0
20210414155704 47 231 16.0 13.0 0.00 0.00 0.00 93 1011.0
20210414154706 46 210 21.0 20.0 0.00 0.00 0.00 93 1011.0
20210414154200 46 256 21.0 16.0 0.00 0.00 0.00 93 1010.8
20210414153708 46 240 19.0 19.0 0.00 0.00 0.00 95 1011.0
20210414153318 46 201 22.0 18.0 0.00 0.00 0.00 96 1010.8
20210414153023 45 215 19.0 20.0 0.00 0.00 0.00 96 1011.0
20210414152755 45 231 16.0 22.0 0.00 0.00 0.00 97 1011.0
20210414151716 45 248 20.0 22.0 0.00 0.00 0.00 99 1010.8
20210414151219 45 239 17.0 15.0 0.00 0.00 0.00 99 1010.8
20210414150723 44 246 22.0 26.0 0.00 0.00 0.00 100 1010.7
20210414150222 44 236 20.0 22.0 0.00 0.00 0.00 100 1010.8
20210414145950 44 204 21.0 20.0 0.00 0.00 0.00 100 1010.7
20210414145820 43 215 22.0 24.0 0.00 0.00 0.00 100 1010.7
20210414144738 43 232 19.0 19.0 0.00 0.00 0.00 100 1010.7
20210414144224 43 236 20.0 23.0 0.00 0.00 0.00 100 1010.7
20210414143727 43 236 16.0 17.0 0.00 0.00 0.00 100 1010.8
20210414143225 42 257 23.0 15.0 0.00 0.00 0.00 100 1010.6
20210414142925 42 231 22.0 25.0 0.00 0.00 0.00 99 1010.5
20210414142728 42 232 19.0 24.0 0.00 0.00 0.00 100 1010.5
20210414141856 42 210 19.0 16.0 0.00 0.00 0.00 100 1010.5
20210414141230 42 225 19.0 10.0 0.00 0.00 0.00 100 1010.4
20210414140732 42 219 22.0 19.0 0.00 0.00 0.00 100 1010.3
20210414140259 41 236 15.0 14.0 0.00 0.00 0.00 100 1010.4
20210414140037 41 252 17.0 21.0 0.00 0.00 0.00 100 1010.3
20210414135919 41 228 20.0 20.0 0.00 0.00 0.00 100 1010.2
20210414134852 41 226 16.0 12.0 0.00 0.00 0.00 100 1010.2
20210414134243 41 269 16.0 23.0 0.00 0.00 0.00 100 1010.2
20210414133744 41 222 20.0 15.0 0.00 0.00 0.00 100 1010.3
20210414133427 41 245 22.0 22.0 0.00 0.00 0.00 100 1010.0
20210414133057 41 225 19.0 19.0 0.00 0.00 0.00 100 1010.0
20210414132850 41 249 16.0 14.0 0.00 0.00 0.00 100 1009.9
20210414131856 41 252 18.0 14.0 0.00 0.00 0.00 100 1009.8
20210414131250 41 229 17.0 17.0 0.00 0.00 0.00 100 1009.7
20210414131041 41 219 14.0 18.0 0.00 0.00 0.00 100 1009.8
20210414130728 41 255 19.0 19.0 0.00 0.00 0.00 100 1009.9
20210414130306 41 194 19.0 12.0 0.00 0.00 0.00 100 1009.8
20210414125955 41 219 16.0 17.0 0.00 0.00 0.00 100 1009.8
20210414124853 41 246 20.0 15.0 0.00 0.00 0.00 100 1009.8
20210414124254 41 236 18.0 19.0 0.00 0.00 0.00 100 1009.9
20210414123800 41 250 18.0 16.0 0.00 0.00 0.00 100 1009.6
20210414123301 41 246 15.0 17.0 0.00 0.00 0.00 100 1009.7
20210414122944 41 203 21.0 16.0 0.00 0.00 0.00 100 1009.5
20210414122749 42 229 20.0 26.0 0.00 0.00 0.00 100 1009.6
20210414122044 42 229 19.0 21.0 0.00 0.00 0.00 100 1009.6
20210414121304 42 235 20.0 18.0 0.00 0.00 0.00 100 1009.5
20210414120810 42 240 21.0 23.0 0.00 0.00 0.00 100 1009.5
20210414120311 42 257 17.0 18.0 0.00 0.00 0.00 100 1009.5
20210414115836 42 215 17.0 13.0 0.00 0.00 0.00 100 1009.5
20210414115718 42 238 14.0 11.0 0.00 0.00 0.00 100 1009.5
20210414114900 42 248 16.0 20.0 0.00 0.00 0.00 100 1009.3
20210414114315 42 238 16.0 16.0 0.00 0.00 0.00 100 1009.3
20210414113819 42 264 15.0 12.0 0.00 0.00 0.00 100 1009.3
20210414113321 42 246 14.0 20.0 0.00 0.00 0.00 100 1009.2
20210414112956 42 243 15.0 11.0 0.00 0.00 0.00 100 1009.3
20210414112843 42 233 17.0 18.0 0.00 0.00 0.00 100 1009.3
20210414112019 42 229 16.0 24.0 0.00 0.00 0.00 100 1009.2
20210414111324 42 245 18.0 23.0 0.00 0.00 0.00 100 1009.2
20210414110835 42 252 15.0 17.0 0.00 0.00 0.00 100 1009.3
20210414110506 42 245 18.0 21.0 0.00 0.00 0.00 100 1009.2
20210414110154 42 243 21.0 17.0 0.00 0.00 0.00 100 1009.1
20210414105943 42 257 16.0 19.0 0.00 0.00 0.00 100 1009.3
20210414105047 42 238 18.0 21.0 0.00 0.00 0.00 100 1009.2
20210414104347 42 232 16.0 26.0 0.00 0.00 0.00 100 1009.3
20210414103840 42 225 17.0 13.0 0.00 0.00 0.00 100 1009.2
20210414103358 42 232 17.0 19.0 0.00 0.00 0.00 100 1009.2
20210414102935 42 246 18.0 18.0 0.00 0.00 0.00 100 1009.2
20210414102818 42 198 14.0 15.0 0.00 0.00 0.00 100 1009.2
20210414102759 42 198 14.0 15.0 0.00 0.00 0.00 100 1009.2
20210414102107 42 238 13.0 14.0 0.00 0.00 0.00 100 1009.2
20210414101346 42 232 19.0 21.0 0.00 0.00 0.00 100 1009.2
20210414100851 42 233 19.0 23.0 0.00 0.00 0.00 100 1009.0
20210414100350 42 238 16.0 22.0 0.00 0.00 0.00 100 1009.0
20210414095939 42 250 18.0 18.0 0.00 0.00 0.00 100 1009.0
20210414095801 43 238 18.0 24.0 0.00 0.00 0.00 100 1009.0
20210414095104 43 233 16.0 22.0 0.00 0.00 0.00 100 1009.0
20210414094356 43 243 21.0 12.0 0.00 0.00 0.00 100 1008.9
20210414093902 43 224 19.0 17.0 0.00 0.00 0.00 100 1008.9
20210414093401 43 225 16.0 23.0 0.00 0.00 0.00 100 1008.9
20210414092922 43 257 20.0 16.0 0.00 0.00 0.00 100 1008.8
20210414092754 43 232 20.0 12.0 0.00 0.00 0.00 100 1008.8
20210414092129 43 197 16.0 19.0 0.00 0.00 0.00 100 1008.7
20210414091408 43 255 21.0 14.0 0.00 0.00 0.00 100 1008.8
20210414090909 43 224 16.0 20.0 0.00 0.00 0.00 100 1008.9
20210414090415 43 231 19.0 16.0 0.00 0.00 0.00 100 1008.9
20210414085913 43 229 19.0 10.0 0.00 0.00 0.00 100 1009.0
20210414085756 43 243 19.0 20.0 0.00 0.00 0.00 100 1009.1
20210414085008 43 231 16.0 19.0 0.00 0.00 0.00 100 1008.9
20210414084419 43 232 18.0 19.0 0.00 0.00 0.00 100 1008.9
20210414083919 43 222 19.0 24.0 0.00 0.00 0.00 100 1009.0
20210414083421 43 233 20.0 20.0 0.00 0.00 0.00 100 1009.1
20210414082930 43 239 16.0 20.0 0.00 0.00 0.00 100 1009.1
20210414082726 43 239 16.0 20.0 0.00 0.00 0.00 100 1009.2
20210414082055 43 229 19.0 22.0 0.00 0.00 0.00 100 1009.1
20210414081426 43 222 16.0 17.0 0.00 0.00 0.00 100 1009.1
20210414080928 43 235 17.0 22.0 0.00 0.00 0.00 100 1009.1
20210414080432 43 222 19.0 22.0 0.00 0.00 0.00 100 1009.0
20210414075933 43 218 21.0 23.0 0.00 0.00 0.00 100 1009.0
20210414075726 43 215 20.0 22.0 0.00 0.00 0.00 100 1009.0
20210414075156 43 218 21.0 16.0 0.00 0.00 0.00 100 1008.9
20210414074439 43 245 19.0 20.0 0.00 0.00 0.00 100 1008.9
20210414073943 43 221 21.0 19.0 0.00 0.00 0.00 100 1008.8
20210414073457 43 231 22.0 23.0 0.00 0.00 0.00 100 1008.8
20210414072946 43 236 18.0 23.0 0.00 0.00 0.00 100 1008.7
20210414072823 43 240 21.0 17.0 0.00 0.00 0.00 100 1008.8
20210414072228 43 204 18.0 28.0 0.00 0.00 0.00 100 1008.8
20210414071445 43 233 18.0 21.0 0.00 0.00 0.00 100 1008.9
20210414070945 43 222 16.0 20.0 0.00 0.00 0.00 100 1009.1
20210414070450 43 236 16.0 17.0 0.00 0.00 0.00 100 1009.1
20210414070104 43 228 15.0 11.0 0.00 0.00 0.00 100 1009.1
20210414065856 44 245 18.0 18.0 0.00 0.00 0.00 100 1009.2
20210414065348 44 235 17.0 16.0 0.00 0.00 0.00 100 1009.2
20210414064454 44 222 14.0 17.0 0.00 0.00 0.00 100 1009.3
20210414064000 44 236 18.0 19.0 0.00 0.00 0.00 100 1009.6
20210414063459 44 229 21.0 18.0 0.00 0.00 0.00 100 1009.3
20210414063020 44 214 16.0 19.0 0.00 0.00 0.00 100 1009.5
20210414062751 44 245 19.0 23.0 0.00 0.00 0.00 100 1009.5
20210414062143 44 246 19.0 9.0 0.00 0.00 0.00 100 1009.6
20210414061513 44 240 20.0 12.0 0.00 0.00 0.00 100 1009.6
20210414061021 44 242 16.0 15.0 0.00 0.00 0.00 100 1009.7
20210414060529 44 236 16.0 21.0 0.00 0.00 0.00 100 1009.6
20210414060200 44 228 18.0 18.0 0.00 0.00 0.00 100 1009.8
20210414055935 44 236 18.0 21.0 0.00 0.00 0.00 100 1009.9
20210414055211 44 224 13.0 13.0 0.00 0.00 0.00 100 1009.9
20210414054530 44 233 16.0 15.0 0.00 0.00 0.00 100 1009.9
20210414054032 44 232 16.0 21.0 0.00 0.00 0.00 100 1009.9
20210414053520 44 243 16.0 19.0 0.00 0.00 0.00 100 1009.9
20210414053033 44 226 14.0 13.0 0.00 0.00 0.00 100 1010.0
20210414052843 44 222 20.0 16.0 0.00 0.00 0.00 100 1009.9
20210414052436 44 240 18.0 18.0 0.00 0.00 0.00 100 1010.0
20210414051029 44 235 20.0 12.0 0.00 0.00 0.00 100 1010.3
20210414050529 44 250 19.0 16.0 0.00 0.00 0.00 100 1010.3
20210414050237 44 252 17.0 16.0 0.00 0.00 0.00 100 1009.8
20210414050104 44 238 21.0 25.0 0.00 0.00 0.00 100 1009.6
20210414045828 44 235 18.0 21.0 0.00 0.00 0.00 100 1009.7
20210414044533 45 212 19.0 24.0 0.00 0.00 0.00 100 1009.9
20210414044036 45 233 18.0 18.0 0.00 0.00 0.00 100 1009.8
20210414043541 45 245 22.0 17.0 0.00 0.00 0.00 100 1009.7
20210414043100 45 232 18.0 13.0 0.00 0.00 0.00 100 1009.5
20210414042907 45 243 20.0 19.0 0.00 0.00 0.00 100 1009.5
20210414042455 45 249 19.0 13.0 0.00 0.00 0.00 100 1009.5
20210414041624 45 246 20.0 19.0 0.00 0.00 0.00 100 1009.2
20210414041052 45 250 21.0 21.0 0.00 0.00 0.00 100 1009.1
20210414040655 45 226 18.0 13.0 0.00 0.00 0.00 100 1009.2
20210414040327 45 205 21.0 21.0 0.00 0.00 0.00 100 1009.2
20210414040035 45 212 21.0 18.0 0.00 0.00 0.00 100 1009.2
20210414035509 45 228 19.0 11.0 0.00 0.00 0.00 100 1009.2
20210414034554 45 193 17.0 19.0 0.00 0.00 0.00 100 1009.0
20210414034056 45 226 17.0 21.0 0.00 0.00 0.00 100 1008.9
20210414033621 45 246 17.0 15.0 0.00 0.00 0.00 100 1009.0
20210414033419 45 217 14.0 15.0 0.00 0.00 0.00 100 1009.0
20210414033143 45 219 19.0 21.0 0.00 0.00 0.00 100 1009.0
20210414031632 45 226 20.0 16.0 0.00 0.00 0.00 100 1008.9
20210414031258 45 246 17.0 17.0 0.00 0.00 0.00 100 1008.8
20210414031115 45 246 17.0 17.0 0.00 0.00 0.00 100 1008.8
20210414030614 45 232 17.0 15.0 0.00 0.00 0.00 100 1008.9
20210414030140 45 193 14.0 14.0 0.00 0.00 0.00 100 1008.9
20210414025947 45 221 20.0 14.0 0.00 0.00 0.00 100 1008.7
20210414025633 45 240 18.0 21.0 0.00 0.00 0.00 100 1008.7
20210414024620 45 248 15.0 20.0 0.00 0.00 0.00 100 1008.8
20210414024121 45 240 18.0 14.0 0.00 0.00 0.00 100 1008.8
20210414023622 46 252 16.0 14.0 0.00 0.00 0.00 100 1008.8
20210414023209 46 249 15.0 15.0 0.00 0.00 0.00 100 1008.8
20210414022934 46 248 17.0 17.0 0.00 0.00 0.00 100 1008.9
20210414022703 46 240 14.0 21.0 0.00 0.00 0.00 100 1008.8
20210414021630 46 239 20.0 18.0 0.00 0.00 0.00 100 1008.9
20210414021130 46 249 17.0 13.0 0.00 0.00 0.00 100 1008.8
20210414020633 46 233 18.0 13.0 0.00 0.00 0.00 100 1008.8
20210414020139 46 246 23.0 21.0 0.00 0.00 0.00 100 1008.4
20210414020026 46 232 16.0 19.0 0.00 0.00 0.00 100 1008.5
20210414015742 46 219 21.0 22.0 0.00 0.00 0.00 99 1008.7
20210414014635 47 236 21.0 16.0 0.00 0.00 0.00 98 1008.4
20210414014150 47 238 17.0 19.0 0.00 0.00 0.00 97 1008.4
20210414013655 47 252 18.0 22.0 0.00 0.00 0.00 96 1008.5
20210414013113 48 262 20.0 21.0 0.00 0.00 0.00 95 1008.5
20210414012600 48 270 19.0 20.0 0.00 0.00 0.00 94 1008.5
20210414011647 49 260 21.0 24.0 0.00 0.00 0.00 94 1008.5
20210414011148 49 256 24.0 21.0 0.00 0.00 0.00 93 1008.4
20210414010654 49 243 20.0 21.0 0.00 0.00 0.00 92 1008.4
20210414005955 50 235 19.0 32.0 0.00 0.00 0.00 89 1008.4
20210414004658 51 233 19.0 22.0 0.00 0.00 0.00 87 1008.5
20210414004200 51 231 20.0 29.0 0.00 0.00 0.00 85 1008.4
20210414003700 52 222 21.0 26.0 0.00 0.00 0.00 82 1008.3
20210414003221 52 233 19.0 25.0 0.00 0.00 0.00 80 1008.5
20210414002749 53 242 21.0 22.0 0.00 0.00 0.00 76 1008.4
20210414001753 54 242 19.0 17.0 0.00 0.00 0.00 74 1008.4
20210414001220 54 205 18.0 13.0 0.00 0.00 0.00 73 1008.3
20210414000713 54 235 16.0 17.0 0.00 0.00 0.00 73 1008.4
20210414000219 55 235 15.0 12.0 0.00 0.00 0.00 73 1008.3
20210413235942 55 238 18.0 21.0 0.00 0.00 0.00 71 1008.4
20210413234823 55 232 15.0 18.0 0.00 0.00 0.00 71 1008.3
20210413234224 56 221 19.0 12.0 0.00 0.00 0.00 69 1008.3
20210413233722 56 225 15.0 20.0 0.00 0.00 0.00 69 1008.3
20210413233237 57 245 18.0 20.0 0.00 0.00 0.00 68 1008.3
20210413233149 57 218 17.0 18.0 0.00 0.00 0.00 67 1008.3
20210413232839 57 238 15.0 16.0 0.00 0.00 0.00 68 1008.5
20210413231750 57 214 18.0 19.0 0.00 0.00 0.00 67 1008.3
20210413231240 57 219 17.0 16.0 0.00 0.00 0.00 68 1008.3
20210413230732 57 218 19.0 12.0 0.00 0.00 0.00 70 1008.3
20210413230354 57 236 15.0 19.0 0.00 0.00 0.00 72 1008.3
20210413230132 56 238 16.0 18.0 0.00 0.00 0.00 72 1008.2
20210413225857 56 224 23.0 16.0 0.00 0.00 0.00 71 1008.1
20210413225109 57 224 20.0 17.0 0.00 0.00 0.00 70 1008.0
20210413224335 57 200 16.0 19.0 0.00 0.00 0.00 72 1008.0
20210413223848 56 228 16.0 13.0 0.00 0.00 0.00 73 1008.0
20210413223748 56 228 16.0 13.0 0.00 0.00 0.00 73 1008.0
20210413223250 56 239 19.0 17.0 0.00 0.00 0.00 75 1008.1
20210413223032 56 221 20.0 22.0 0.00 0.00 0.00 74 1008.1
20210413222922 56 224 20.0 17.0 0.00 0.00 0.00 75 1008.0
20210413221811 56 243 23.0 26.0 0.00 0.00 0.00 74 1008.0
20210413221254 56 215 19.0 15.0 0.00 0.00 0.00 74 1008.1
20210413220753 56 219 19.0 24.0 0.00 0.00 0.00 75 1008.2
20210413220454 56 218 22.0 16.0 0.00 0.00 0.00 74 1008.2
20210413220153 57 224 24.0 28.0 0.00 0.00 0.00 72 1008.2
20210413215854 57 240 20.0 15.0 0.00 0.00 0.00 72 1008.2
20210413214300 57 221 20.0 21.0 0.00 0.00 0.00 73 1008.2
20210413213819 57 228 21.0 21.0 0.00 0.00 0.00 73 1008.4
20210413213311 56 236 19.0 22.0 0.00 0.00 0.00 75 1008.5
20210413212948 56 240 22.0 25.0 0.00 0.00 0.00 75 1008.7
20210413212849 56 231 24.0 25.0 0.00 0.00 0.00 74 1008.7
20210413211904 56 221 22.0 12.0 0.00 0.00 0.00 76 1008.8
20210413211309 56 242 21.0 22.0 0.00 0.00 0.00 76 1008.8
20210413210830 56 225 23.0 28.0 0.00 0.00 0.00 76 1008.9
20210413210314 56 217 22.0 26.0 0.00 0.00 0.00 75 1008.9
20210413205907 56 232 23.0 18.0 0.00 0.00 0.00 76 1009.0
20210413205714 56 231 21.0 24.0 0.00 0.00 0.00 77 1009.0
20210413204843 56 239 22.0 28.0 0.00 0.00 0.00 77 1009.1
20210413204319 56 214 26.0 20.0 0.00 0.00 0.00 74 1009.2
20210413203911 56 228 24.0 24.0 0.00 0.00 0.00 74 1009.3
20210413203325 56 239 22.0 22.0 0.00 0.00 0.00 73 1009.3
20210413203153 57 226 20.0 19.0 0.00 0.00 0.00 71 1009.2
20210413203055 57 226 20.0 19.0 0.00 0.00 0.00 71 1009.2
20210413202823 57 229 23.0 23.0 0.00 0.00 0.00 71 1009.2
20210413202027 57 263 23.0 22.0 0.00 0.00 0.00 71 1009.5
20210413201333 57 235 24.0 27.0 0.00 0.00 0.00 72 1009.5
20210413200832 57 233 19.0 22.0 0.00 0.00 0.00 74 1009.5
20210413200440 56 232 24.0 26.0 0.00 0.00 0.00 73 1009.6
20210413200221 56 240 22.0 19.0 0.00 0.00 0.00 74 1009.6
20210413195852 56 231 22.0 24.0 0.00 0.00 0.00 75 1009.6
20210413195756 56 240 19.0 23.0 0.00 0.00 0.00 76 1009.8
20210413194843 56 240 19.0 23.0 0.00 0.00 0.00 76 1009.8
20210413194344 56 246 23.0 25.0 0.00 0.00 0.00 75 1009.6
20210413193850 56 233 22.0 21.0 0.00 0.00 0.00 77 1009.7
20210413193345 55 229 19.0 28.0 0.00 0.00 0.00 78 1009.6
20210413193108 55 218 24.0 22.0 0.00 0.00 0.00 78 1009.5
20210413192141 56 229 19.0 24.0 0.00 0.00 0.00 77 1009.7
20210413191348 55 210 16.0 23.0 0.00 0.00 0.00 79 1009.8
20210413190850 55 229 18.0 28.0 0.00 0.00 0.00 80 1009.8
20210413190352 55 235 22.0 21.0 0.00 0.00 0.00 79 1009.6
20210413190051 55 228 22.0 25.0 0.00 0.00 0.00 79 1009.7
20210413185836 54 239 21.0 26.0 0.00 0.00 0.00 81 1009.3
20210413185049 54 248 23.0 25.0 0.00 0.00 0.00 80 1009.6
20210413184425 54 215 24.0 17.0 0.00 0.00 0.00 79 1009.6
20210413183900 55 232 18.0 17.0 0.00 0.00 0.00 80 1009.6
20210413183407 54 248 19.0 24.0 0.00 0.00 0.00 81 1009.7
20210413182942 54 243 20.0 17.0 0.00 0.00 0.00 84 1009.8
20210413182833 53 219 16.0 24.0 0.00 0.00 0.00 87 1009.9
20210413182029 53 253 30.0 24.0 0.00 0.00 0.00 85 1009.9
20210413181409 53 240 24.0 29.0 0.00 0.00 0.00 84 1009.7
20210413180921 53 252 28.0 25.0 0.00 0.00 0.00 85 1009.7
20210413180423 54 240 25.0 19.0 0.00 0.00 0.00 84 1009.7
20210413175915 54 232 25.0 29.0 0.00 0.00 0.00 84 1009.7
20210413175739 54 240 20.0 15.0 0.00 0.00 0.00 85 1009.7
20210413174950 53 238 21.0 19.0 0.00 0.00 0.00 88 1009.7
20210413174418 53 221 21.0 20.0 0.00 0.00 0.00 88 1009.7